Location: Ferchesar
(52.6477°N, 12.4298°E)
Time: 10:08:17
(UTC+01:00)

S-56A Canister/Altair - Pass Details

Date: 10 December 2021
Orbit: 633 x 2499 km, 38.9° (Epoch: 19 January)

Event Time Altitude Azimuth Distance (km) Brightness Sun altitude
Rises 00:59:24 0° 256° (WSW) 5,275 - -58.4°
Reaches altitude 10° 01:03:46 10° 247° (WSW) 3,958 - -58.1°
Maximum altitude 01:11:51 30° 192° (SSW) 2,133 - -57.5°
Drops below altitude 10° 01:17:40 10° 134° (SE) 2,793 - -57.0°
Sets 01:20:12 0° 123° (ESE) 3,533 - -56.8°
